EW7157 Weather Reports


time (UTC)temp
C
wind
direction
speed
KPH
gust
KPH
rain 1hr
cm
rain 24hr
cm
rain mn
cm
humidity
%
barometer
mb
20260904143823 29 166 0.0 0.0 0.05 0.08 0.03 63 1034.9
20260904142823 28 177 0.0 0.0 0.00 0.03 0.00 64 1034.9
20260904141922 28 135 0.0 3.2 0.00 0.03 0.00 63 1034.8
20260904140824 28 157 0.0 3.2 0.00 0.03 0.00 68 1034.8
20260904135822 27 157 0.0 3.2 0.00 0.03 0.00 70 1034.7
20260904133821 26 156 1.6 6.4 0.00 0.03 0.00 75 1034.8
20260904132822 25 135 0.0 0.0 0.00 0.03 0.00 78 1034.8
20260904131822 24 122 0.0 6.4 0.00 0.03 0.00 80 1034.8
20260904130823 23 157 0.0 0.0 0.00 0.03 0.00 82 1034.9
20260904125824 23 135 0.0 0.0 0.00 0.03 0.00 82 1034.8
20260904124822 23 180 0.0 3.2 0.00 0.03 0.00 83 1034.8
20260904123823 23 135 0.0 1.6 0.00 0.03 0.00 85 1035.0
20260904123721 23 147 1.6 4.8 0.00 0.03 0.00 86 1035.1
20260904122723 22 135 0.0 3.2 0.00 0.03 0.00 88 1035.0
20260904121722 22 135 0.0 0.0 0.00 0.03 0.00 89 1034.8
20260904120822 22 180 0.0 1.6 0.00 0.03 0.00 90 1034.9
20260904113824 21 180 0.0 0.0 0.00 0.03 0.00 90 1034.8
20260904111822 21 180 0.0 0.0 0.00 0.03 0.00 91 1034.6
20260904110822 21 180 0.0 0.0 0.00 0.03 0.00 92 1034.5
20260904105826 21 180 0.0 0.0 0.00 0.03 0.00 92 1034.1
20260904104922 21 180 0.0 0.0 0.00 0.03 0.00 92 1034.2
20260904103923 21 180 0.0 0.0 0.00 0.03 0.00 91 1034.0
20260904102924 22 180 0.0 0.0 0.00 0.03 0.00 91 1034.0
20260904102824 22 180 0.0 0.0 0.00 0.03 0.00 92 1033.9
20260904101723 22 180 0.0 0.0 0.00 0.03 0.00 92 1033.9
20260904100724 22 180 0.0 1.6 0.00 0.03 0.00 92 1034.1
20260904095724 22 180 0.0 0.0 0.00 0.03 0.00 91 1034.0
20260904091821 22 180 0.0 0.0 0.00 0.20 0.00 91 1034.0
20260904090822 22 180 0.0 0.0 0.00 0.25 0.00 92 1034.1
20260904085823 22 180 0.0 0.0 0.00 0.36 0.00 91 1033.9
20260904084822 22 180 0.0 0.0 0.00 0.41 0.00 92 1034.0
20260904083822 22 180 0.0 0.0 0.00 0.43 0.00 91 1034.0
20260904082823 23 180 0.0 0.0 0.00 0.58 0.00 92 1034.0
20260904081922 23 180 0.0 0.0 0.00 0.61 0.00 91 1033.8
20260904080924 23 180 0.0 0.0 0.00 0.61 0.00 91 1033.9
20260904075922 23 180 0.0 0.0 0.00 0.64 0.00 93 1034.1
20260904074022 23 180 0.0 0.0 0.00 0.64 0.00 93 1034.0
20260904073023 23 180 0.0 0.0 0.00 0.64 0.00 92 1033.9
20260904071023 23 180 0.0 0.0 0.00 0.64 0.00 92 1033.7
20260904070922 23 180 0.0 0.0 0.00 0.64 0.00 92 1033.6
20260904065922 23 180 0.0 0.0 0.00 0.64 0.00 90 1033.4
20260904064921 23 180 0.0 0.0 0.00 0.64 0.00 90 1033.1
20260904062925 23 180 0.0 0.0 0.00 0.66 0.00 91 1033.2
20260904062022 23 180 0.0 0.0 0.00 0.69 0.00 91 1033.4
20260904061024 23 180 0.0 0.0 0.00 0.71 0.00 91 1033.4
20260904060023 23 180 0.0 0.0 0.00 0.94 0.00 90 1033.6
20260904055023 23 180 0.0 0.0 0.00 1.55 0.00 91 1034.0
20260904053021 23 180 0.0 0.0 0.00 1.60 0.00 91 1034.2
20260904052022 23 180 0.0 0.0 0.00 1.63 0.00 91 1034.2
20260904051022 23 180 0.0 0.0 0.00 1.63 0.00 91 1034.0
20260904050022 23 180 0.0 0.0 0.00 1.63 0.00 90 1034.3
20260904045121 23 180 0.0 0.0 0.00 1.63 0.00 90 1034.0
20260904044124 23 180 0.0 0.0 0.00 1.63 0.00 91 1034.1
20260904043222 23 180 0.0 0.0 0.00 1.63 0.00 91 1034.3
20260904042222 23 180 0.0 0.0 0.00 1.63 0.00 91 1034.4
20260904041321 23 180 0.0 0.0 0.00 1.63 0.00 91 1034.5
20260904040322 23 180 0.0 0.0 0.00 1.63 0.00 91 1034.8
20260904035326 23 180 0.0 0.0 0.00 1.63 1.63 92 1034.6
20260904034425 23 180 0.0 0.0 0.00 1.63 1.63 91 1034.7
20260904033426 23 180 0.0 0.0 0.00 1.63 1.63 91 1034.9
20260904032425 23 180 0.0 0.0 0.00 1.63 1.63 91 1035.0
20260904032326 23 180 0.0 0.0 0.00 1.63 1.63 92 1035.0
20260904032227 23 180 0.0 0.0 0.00 1.63 1.63 92 1035.1
20260904031226 23 180 0.0 0.0 0.00 1.63 1.63 92 1035.3
20260904030325 23 180 0.0 0.0 0.00 1.63 1.63 91 1035.2
20260904025327 23 180 0.0 0.0 0.00 1.63 1.63 91 1035.2
20260904024325 23 180 0.0 0.0 0.00 1.63 1.63 91 1035.0
20260904023425 24 180 0.0 0.0 0.00 1.63 1.63 90 1035.1
20260904021427 24 180 0.0 0.0 0.00 1.63 1.63 89 1035.3
20260904021329 24 180 0.0 0.0 0.00 1.63 1.63 90 1035.2
20260904021227 24 180 0.0 0.0 0.00 1.63 1.63 90 1035.2
20260904020226 24 180 0.0 0.0 0.00 1.63 1.63 90 1035.4
20260904020125 24 180 0.0 0.0 0.00 1.63 1.63 89 1035.5
20260904020026 24 180 0.0 0.0 0.00 1.63 1.63 89 1035.5
20260904015125 24 180 0.0 0.0 0.00 1.63 1.63 89 1035.4
20260904014126 24 180 0.0 0.0 0.00 1.63 1.63 88 1035.6
20260904014027 24 180 0.0 0.0 0.00 1.63 1.63 88 1035.6
20260904013027 24 180 0.0 0.0 0.00 1.63 1.63 86 1035.6
20260904012026 24 180 0.0 0.0 0.00 1.63 1.63 85 1035.8
20260904011927 24 180 0.0 0.0 0.00 1.63 1.63 85 1035.7
20260904005827 25 180 0.0 0.0 0.00 1.63 1.63 83 1035.8
20260904004827 25 180 0.0 0.0 0.00 1.63 1.63 83 1035.7
20260904003925 25 180 0.0 0.0 0.00 1.63 1.63 83 1035.8
20260904002926 25 180 0.0 0.0 0.00 1.63 1.63 82 1035.4
20260904001926 25 180 0.0 0.0 0.00 1.63 1.63 82 1035.2
20260904001843 25 180 0.0 0.0 0.00 1.63 1.63 82 1035.2
20260904000826 25 180 0.0 0.0 0.00 1.63 1.63 80 1035.0
20260903235825 25 180 0.0 0.0 0.00 1.63 1.63 81 1035.0
20260903233926 25 180 0.0 0.0 0.00 1.63 1.63 81 1035.3
20260903232927 25 180 0.0 0.0 0.03 1.63 1.63 80 1035.1
20260903231928 25 180 0.0 0.0 0.03 1.63 1.63 78 1034.9
20260903225926 26 180 0.0 0.0 0.03 1.63 1.63 78 1034.8
20260903224928 26 180 0.0 0.0 0.03 1.63 1.63 78 1035.0
20260903223927 26 180 0.0 0.0 0.03 1.63 1.63 76 1034.6
20260903222926 26 157 0.0 0.0 0.00 1.60 1.60 75 1034.7
20260903221927 27 157 0.0 0.0 0.00 1.60 1.60 74 1034.6
20260903221026 27 157 0.0 0.0 0.00 1.60 1.60 73 1034.6
20260903220026 27 157 0.0 0.0 0.00 1.60 1.60 72 1034.5
20260903215026 27 157 0.0 0.0 0.00 1.60 1.60 71 1034.4
20260903214025 28 157 0.0 0.0 0.00 1.60 1.60 69 1034.3
20260903213026 28 157 0.0 0.0 0.00 1.60 1.60 68 1034.3
20260903212028 28 157 0.0 0.0 0.00 1.60 1.60 66 1034.2
20260903211027 29 157 0.0 0.0 0.00 1.60 1.60 66 1034.4
20260903210027 30 157 0.0 0.0 0.00 1.60 1.60 63 1034.4
20260903205025 30 180 0.0 0.0 0.00 1.60 1.60 62 1034.4
20260903204927 30 180 0.0 0.0 0.00 1.60 1.60 62 1034.5
20260903204843 30 180 0.0 0.0 0.00 1.60 1.60 63 1034.5
20260903203925 31 225 0.0 0.0 0.00 1.60 1.60 61 1034.4
20260903202926 31 225 0.0 0.0 0.00 1.60 1.60 60 1034.7
20260903200927 32 157 0.0 0.0 0.00 1.60 1.60 58 1034.8
20260903200026 32 159 0.0 0.0 0.00 1.60 1.60 56 1034.9
20260903195928 32 98 0.0 0.0 0.00 1.60 1.60 56 1034.8
20260903194927 33 180 0.0 0.0 0.00 1.60 1.60 53 1034.9
20260903193927 33 135 0.0 0.0 0.00 1.60 1.60 53 1035.0
20260903192926 33 67 0.0 0.0 0.00 1.60 1.60 53 1035.1
20260903191927 33 47 0.0 0.0 0.00 1.60 1.60 54 1035.3
20260903185927 33 360 0.0 0.0 0.00 1.60 1.60 58 1035.5
20260903184026 32 180 0.0 0.0 0.00 1.60 1.60 59 1035.7
20260903183028 32 135 0.0 0.0 0.00 1.60 1.60 59 1035.7
20260903182126 32 135 0.0 0.0 0.00 1.60 1.60 59 1035.7
20260903182028 32 135 0.0 0.0 0.00 1.60 1.60 58 1035.8
20260903181127 32 180 0.0 0.0 0.00 1.60 1.60 60 1036.0
20260903174327 31 180 0.0 0.0 0.00 1.60 1.60 62 1036.1
20260903173425 30 135 0.0 0.0 0.00 1.60 1.60 65 1036.2
20260903173328 30 100 0.0 0.0 0.00 1.60 1.60 65 1036.2
20260903172328 30 360 0.0 0.0 0.00 1.60 1.60 67 1036.5
20260903171328 30 180 0.0 0.0 0.00 1.60 1.60 65 1036.6
20260903170328 30 90 0.0 0.0 0.00 1.60 1.60 68 1036.7
20260903163326 28 163 0.0 0.0 0.00 1.60 1.60 73 1036.9
20260903162327 27 112 0.0 0.0 0.00 1.60 1.60 77 1037.3
20260903161425 27 135 0.0 0.0 0.00 1.60 1.60 77 1037.4
20260903160427 27 180 0.0 0.0 0.00 1.60 1.60 79 1037.7
20260903154427 27 157 0.0 0.0 0.00 1.63 1.60 78 1038.2
20260903153428 27 180 0.0 0.0 0.00 1.63 1.60 77 1038.1
20260903152527 27 180 0.0 0.0 0.00 1.63 1.60 81 1038.2
20260903152427 26 180 0.0 0.0 0.00 1.63 1.60 82 1038.1
20260903151427 26 180 0.0 0.0 0.00 1.63 1.60 86 1037.9
20260903151226 26 180 0.0 0.0 0.00 1.63 1.60 87 1037.9
20260903150227 26 225 0.0 0.0 0.00 1.63 1.60 90 1038.2
20260903145225 26 225 0.0 0.0 0.00 1.65 1.60 93 1038.0
20260903145126 26 225 0.0 0.0 0.00 1.65 1.60 92 1038.0